Location: Bruderhein
(53.8035°N, 112.9265°W)
Time: 10:04:49
(UTC+00:00)

Envisat - Pass Details

Date: 28 May 2024
Orbit: 762 x 764 km, 98.3° (Epoch: 13 June)

Event Time Altitude Azimuth Distance (km) Brightness Sun altitude
Rises 10:02:03 0° 21° (NNE) 3,241 8.1 -7.7°
Reaches altitude 10° 10:04:41 10° 33° (NNE) 2,310 7.3 -7.5°
Maximum altitude 10:09:04 29° 93° (E) 1,394 4.8 -7.1°
Drops below altitude 10° 10:13:25 10° 152° (SSE) 2,294 5.2 -6.7°
Sets 10:16:00 0° 164° (SSE) 3,215 5.9 -6.5°
